Weather in Kyardla

Estonia     58°59′43″N   22°44′43″E
temp.,
°C
wind,
m/s
gust,
m/s
humid.,
%
clouds,
%
prec.,
mm/h
press.,
hPa
HPBL,
m
28 february, sun
sun2823:00+3w51183100 0.5 1024296
02:00+3w5108496 0.5 1023255
05:00+3wnw6148158 0.0 1020403
08:00+3nw6158556 0.0 1020610
11:00+4nnw8178697 0.0 1021583
14:00+4nnw7138349 0.0 1022447
17:00+3nw611853 0.0 1023276
20:00+3nw5108925 0.0 1025248
1 march, mon
mon123:00+3nw612870 0.0 1026279
02:00+2nw510880 0.0 1027217
05:00+2w348734 0.0 102674
08:00+2wsw4108563 0.0 1025200
11:00+6wsw71564100 0.0 1023531
14:00+4w5980100 0.0 1023315
17:00+3wnw4781100 0.0 1021191
20:00+3wnw4978100 0.0 1022191
2 march, tue
tue223:00+3w51177100 0.0 1021216
02:00+4w6137252 0.0 1021310
05:00+3wnw5127465 0.0 1019266
08:00+4nw8177842 0.0 1020539
11:00+4nnw814795 0.0 1022603
14:00+3nw713743 0.0 1024517
17:00+2nw814760 0.0 1025474
20:00+1nnw612810 0.0 1027392
3 march, wed
wed323:00+1nw59857 0.0 1028231
02:00+1wnw378753 0.0 1028155
05:00+1w488774 0.0 1027183
08:00+1wsw478573 0.0 1025188
11:00+5wsw47763 0.0 1024253
14:00+5sw611702 0.0 1020450
17:00+3wsw7148411 0.0 1017674
20:00+2w6108848 0.0 1014513
4 march, thu
thu423:00+1w599480 0.0 1012263
02:00+2nw6129162 0.0 1011452
05:000nnw7116597 0.0 1010707
08:00−1nnw596299 0.0 1010863
11:000nnw695971 0.0 1010941
14:00−1nnw576936 0.0 1010820
17:00−1nnw587143 0.0 1010709
20:00−2n596526 0.0 1011470